When you browse on this site, cookies collect data to enhance your experience and personalize the content and advertising you see.
Visit our Privacy Policy to learn more. By continuing to use the site, you agree to this use of cookies and data.
  • Em Portugal
  • Lista de países
  • Para 7 dias
  • Temperatura da água
  • Mapas de satélite
  • Mapa do tempo
  • Widgets de tempo
  • user-avatar
    Iniciar Sessão

    Previsão horária em Biela

    Hoje, 24 Junho, Segunda-feira

    Tempo Temperatura Precipitação Vento Pressão Humidade
    00:00 +13°C° 0 mm 3 m/s 759 mmHg 92%
    01:00 +13°C° 0 mm 3 m/s 759 mmHg 94%
    02:00 +13°C° 0 mm 3 m/s 759 mmHg 94%
    03:00 +12°C° 0 mm 3 m/s 759 mmHg 94%
    04:00 +13°C° 0 mm 2 m/s 759 mmHg 93%
    05:00 +14°C° 0 mm 3 m/s 759 mmHg 89%
    06:00 +17°C° 0 mm 3 m/s 759 mmHg 85%
    07:00 +19°C° 0 mm 3 m/s 760 mmHg 81%
    08:00 +21°C° 0 mm 3 m/s 760 mmHg 74%
    09:00 +22°C° 0 mm 3 m/s 760 mmHg 68%
    10:00 +25°C° 0 mm 4 m/s 759 mmHg 61%
    11:00 +26°C° 0 mm 3 m/s 760 mmHg 58%
    12:00 +27°C° 0 mm 3 m/s 760 mmHg 55%
    13:00 +27°C° 0 mm 3 m/s 760 mmHg 52%
    14:00 +27°C° 0 mm 3 m/s 760 mmHg 53%
    15:00 +27°C° 0 mm 3 m/s 759 mmHg 55%
    16:00 +27°C° 0 mm 4 m/s 759 mmHg 56%
    17:00 +26°C° 0 mm 3 m/s 759 mmHg 62%
    18:00 +25°C° 0 mm 3 m/s 760 mmHg 67%
    19:00 +24°C° 0 mm 3 m/s 760 mmHg 73%
    20:00 +22°C° 0 mm 3 m/s 760 mmHg 76%
    21:00 +21°C° 0 mm 3 m/s 760 mmHg 78%
    22:00 +19°C° 0 mm 4 m/s 760 mmHg 81%
    23:00 +18°C° 0 mm 3 m/s 761 mmHg 82%

    Amanhã, 25 Junho, Terça-feira

    Tempo Temperatura Precipitação Vento Pressão Humidade
    00:00 +18°C° 0 mm 3 m/s 761 mmHg 84%
    01:00 +17°C° 0 mm 3 m/s 761 mmHg 86%
    02:00 +17°C° 0 mm 3 m/s 761 mmHg 87%
    03:00 +16°C° 0 mm 3 m/s 761 mmHg 89%
    04:00 +14°C° 0 mm 3 m/s 760 mmHg 90%
    05:00 +17°C° 0 mm 3 m/s 760 mmHg 85%
    06:00 +19°C° 0 mm 4 m/s 761 mmHg 80%
    07:00 +20°C° 0 mm 4 m/s 761 mmHg 74%
    08:00 +22°C° 0 mm 4 m/s 761 mmHg 71%
    09:00 +23°C° 0 mm 4 m/s 761 mmHg 67%
    10:00 +26°C° 0 mm 5 m/s 760 mmHg 64%
    11:00 +27°C° 0 mm 5 m/s 760 mmHg 64%
    12:00 +28°C° 0 mm 5 m/s 760 mmHg 63%
    13:00 +29°C° 0 mm 5 m/s 760 mmHg 63%
    14:00 +29°C° 0 mm 4 m/s 760 mmHg 63%
    15:00 +29°C° 0 mm 4 m/s 759 mmHg 63%
    16:00 +30°C° 0 mm 4 m/s 759 mmHg 63%
    17:00 +29°C° 0 mm 4 m/s 759 mmHg 68%
    18:00 +28°C° 0 mm 4 m/s 759 mmHg 74%
    19:00 +27°C° 0 mm 3 m/s 759 mmHg 79%
    20:00 +26°C° 0 mm 4 m/s 759 mmHg 79%
    21:00 +25°C° 0 mm 4 m/s 759 mmHg 79%
    22:00 +22°C° 0 mm 4 m/s 759 mmHg 79%
    23:00 +22°C° 0 mm 4 m/s 759 mmHg 80%

    Depois de amanhã, 26 Junho, Quarta-feira

    Tempo Temperatura Precipitação Vento Pressão Humidade
    00:00 +21°C° 0 mm 4 m/s 759 mmHg 81%
    01:00 +21°C° 0 mm 3 m/s 759 mmHg 83%
    02:00 +20°C° 0 mm 3 m/s 758 mmHg 84%
    03:00 +20°C° 0 mm 3 m/s 758 mmHg 85%
    04:00 +20°C° 0 mm 3 m/s 757 mmHg 87%
    05:00 +21°C° 0 mm 3 m/s 757 mmHg 85%
    06:00 +24°C° 0 mm 3 m/s 758 mmHg 83%
    07:00 +25°C° 0 mm 3 m/s 758 mmHg 81%
    08:00 +27°C° 0 mm 3 m/s 757 mmHg 75%
    09:00 +29°C° 0 mm 2 m/s 757 mmHg 69%
    10:00 +30°C° 0 mm 2 m/s 757 mmHg 63%
    11:00 +31°C° 0 mm 3 m/s 756 mmHg 59%
    12:00 +33°C° 0 mm 3 m/s 756 mmHg 55%
    13:00 +34°C° 0 mm 3 m/s 756 mmHg 51%
    14:00 +34°C° 0 mm 3 m/s 755 mmHg 51%
    15:00 +34°C° 0 mm 4 m/s 755 mmHg 52%
    16:00 +34°C° 0 mm 4 m/s 754 mmHg 52%
    17:00 +33°C° 0 mm 3 m/s 754 mmHg 57%
    18:00 +31°C° 0 mm 3 m/s 754 mmHg 63%
    19:00 +30°C° 0 mm 2 m/s 753 mmHg 68%
    20:00 +28°C° 0.7 mm 3 m/s 753 mmHg 72%
    21:00 +27°C° 0.7 mm 3 m/s 753 mmHg 76%
    22:00 +25°C° 0.7 mm 3 m/s 753 mmHg 80%
    23:00 +25°C° 0.7 mm 3 m/s 753 mmHg 85%

    27 Junho, Quinta-feira

    Tempo Temperatura Precipitação Vento Pressão Humidade
    00:00 +24°C° 0.7 mm 3 m/s 753 mmHg 89%
    01:00 +22°C° 0.7 mm 4 m/s 753 mmHg 94%
    02:00 +21°C° 0 mm 4 m/s 753 mmHg 92%
    03:00 +20°C° 0 mm 5 m/s 753 mmHg 91%
    04:00 +19°C° 0 mm 6 m/s 753 mmHg 89%
    05:00 +19°C° 0 mm 6 m/s 753 mmHg 88%
    06:00 +19°C° 0 mm 6 m/s 754 mmHg 86%
    07:00 +18°C° 0 mm 7 m/s 754 mmHg 85%
    08:00 +20°C° 0 mm 7 m/s 754 mmHg 80%
    09:00 +21°C° 0 mm 7 m/s 755 mmHg 75%
    10:00 +22°C° 0 mm 7 m/s 755 mmHg 70%
    11:00 +23°C° 0.2 mm 6 m/s 755 mmHg 68%
    12:00 +23°C° 0.2 mm 6 m/s 755 mmHg 67%
    13:00 +24°C° 0.2 mm 6 m/s 755 mmHg 65%
    14:00 +25°C° 0.2 mm 5 m/s 755 mmHg 66%
    15:00 +25°C° 0.2 mm 4 m/s 755 mmHg 67%
    16:00 +25°C° 0.2 mm 4 m/s 755 mmHg 67%
    17:00 +24°C° 0.1 mm 3 m/s 755 mmHg 70%
    18:00 +22°C° 0.1 mm 3 m/s 755 mmHg 73%
    19:00 +21°C° 0.1 mm 3 m/s 755 mmHg 76%
    20:00 +20°C° 0 mm 2 m/s 755 mmHg 78%
    21:00 +18°C° 0 mm 2 m/s 755 mmHg 80%
    22:00 +18°C° 0 mm 1 m/s 755 mmHg 82%
    23:00 +16°C° 0 mm 1 m/s 755 mmHg 83%

    28 Junho, Sexta-feira

    Tempo Temperatura Precipitação Vento Pressão Humidade
    00:00 +16°C° 0 mm 1 m/s 755 mmHg 83%
    01:00 +15°C° 0 mm 1 m/s 755 mmHg 84%
    02:00 +16°C° 0 mm 1 m/s 755 mmHg 86%
    03:00 +16°C° 0 mm 2 m/s 754 mmHg 87%
    04:00 +16°C° 0 mm 2 m/s 754 mmHg 89%
    05:00 +17°C° 0 mm 3 m/s 754 mmHg 86%
    06:00 +17°C° 0 mm 4 m/s 754 mmHg 83%
    07:00 +17°C° 0 mm 5 m/s 753 mmHg 80%
    08:00 +19°C° 0 mm 5 m/s 753 mmHg 77%
    09:00 +20°C° 0 mm 5 m/s 753 mmHg 74%
    10:00 +21°C° 0 mm 5 m/s 753 mmHg 71%
    11:00 +22°C° 0.2 mm 5 m/s 753 mmHg 66%
    12:00 +23°C° 0.2 mm 5 m/s 753 mmHg 61%
    13:00 +24°C° 0.2 mm 6 m/s 753 mmHg 57%
    14:00 +24°C° 0 mm 6 m/s 754 mmHg 54%
    15:00 +24°C° 0 mm 6 m/s 754 mmHg 51%
    16:00 +23°C° 0 mm 6 m/s 754 mmHg 49%
    17:00 +22°C° 0 mm 5 m/s 754 mmHg 55%
    18:00 +20°C° 0 mm 5 m/s 755 mmHg 62%
    19:00 +19°C° 0 mm 4 m/s 755 mmHg 68%
    20:00 +17°C° 0 mm 4 m/s 755 mmHg 69%
    21:00 +14°C° 0 mm 3 m/s 756 mmHg 70%
    22:00 +13°C° 0 mm 2 m/s 756 mmHg 71%
    23:00 +13°C° 0 mm 1 m/s 756 mmHg 71%

    29 Junho, Sábado

    Tempo Temperatura Precipitação Vento Pressão Humidade
    00:00 +13°C° 0 mm 1 m/s 756 mmHg 71%
    01:00 +11°C° 0 mm 0 m/s 756 mmHg 70%
    02:00 +12°C° 0 mm 0 m/s 756 mmHg 69%
    03:00 +13°C° 0 mm 1 m/s 756 mmHg 68%
    04:00 +13°C° 0 mm 1 m/s 756 mmHg 66%
    05:00 +14°C° 0 mm 1 m/s 756 mmHg 66%
    06:00 +15°C° 0 mm 1 m/s 756 mmHg 66%
    07:00 +16°C° 0 mm 2 m/s 756 mmHg 66%
    08:00 +17°C° 0 mm 2 m/s 756 mmHg 62%
    09:00 +19°C° 0 mm 3 m/s 756 mmHg 58%
    10:00 +20°C° 0 mm 3 m/s 756 mmHg 54%
    11:00 +21°C° 0 mm 4 m/s 756 mmHg 53%
    12:00 +23°C° 0 mm 5 m/s 755 mmHg 52%
    13:00 +25°C° 0 mm 5 m/s 755 mmHg 51%
    14:00 +24°C° 0 mm 6 m/s 755 mmHg 49%
    15:00 +24°C° 0 mm 6 m/s 755 mmHg 47%
    16:00 +24°C° 0 mm 6 m/s 755 mmHg 45%
    17:00 +22°C° 0 mm 5 m/s 755 mmHg 51%
    18:00 +20°C° 0 mm 5 m/s 755 mmHg 57%
    19:00 +18°C° 0 mm 4 m/s 755 mmHg 63%
    20:00 +16°C° 0 mm 3 m/s 755 mmHg 65%
    21:00 +13°C° 0 mm 3 m/s 756 mmHg 67%
    22:00 +12°C° 0 mm 2 m/s 756 mmHg 69%
    23:00 +12°C° 0 mm 2 m/s 756 mmHg 70%
    Mostrar mais